Showing default

TIANMU-1 04, 55974

Orbit data source: Space-Track

TIANMU-1 04, 55974 is a payload satellite owned by Hangtian Tianmu (CN) in SSO that was launched on Wed, 22 Mar 2023 UTC via a KUAIZHOU-1A launch vehicle from the Jiuquan Satellite Launch Center, China (JSC). Payload-class satellites include a variety of spacecraft equipped with specific instruments for various scientific and technological missions. These include communications satellites like Starlink; space stations such as the ISS; scientific satellites like the Hubble; Earth observation satellites from companies like Planet Labs, Umbra, and HawkEye 360; GPS; miniature CubeSats for education and research; and military/defense satellites.

Loading next visibility...
Identifier
55974, 2023-039B
Orbit
SSO
Country
Flag of CNCN / PRC
Related business
Manufacturer
Hangtian Tianmu
Mission
Operational Commercial Weather
Bus & Motor
TIANMU, Unknown motor
Mass
50 kg wet, ~50 kg dry
Launch date (UTC)
2023-03-22 (3 years ago)
Launch vehicle
KUAIZHOU-1A
Launch site
Jiuquan Satellite Launch Center, China (JSC)
Object type
Payload
Rocket body
Debris
Shape & HBR
Box, 0.8 m
Radar Cross Section
2.000 m², Large (>1 m²)

Expand to show TLE details & history
Last TLE update: 5 hours ago

TLE from 5 hours ago
0 TIANMU-1 04
1 55974U 23039B   26168.16899988  .00012463  00000-0  24115-3 0  9990
2 55974  97.5167 341.2907 0004878  95.9628 264.2178 15.47881557180841
Epoch: 2026-06-17T04:03Z
TLE epoch observation values (Epoch: 2026-06-17T04:03:21.589Z)
Latitude
-0.00003°
Longitude
15.02021°
Altitude
426.385 km
Speed
7.655 km/s
True Right ascension
22h 45m 09s
True Declination
0° 00' 00"
Sunlit
Object was in daylight at epoch
Visualization orbit readout
Latitude
Unknown
Longitude
Unknown
Altitude
Unknown
Speed
Unknown
Apparent Right ascension
Unknown
Apparent Declination
Unknown
Sunlit
N/A
Visualization observer readout
Local Sidereal Time
19:28:21
Azimuth
Unknown
Elevation
Unknown
Doppler factor
Unknown
Orbital elements
Apogee altitude
423.174 km
Perigee altitude
416.542 km
Semi-major axis
6,797.995 km
Eccentricity
0.00049
Inclination
97.5167°
RAAN
341.2907°
Arg. of periapsis
95.9628°
True anomaly
264.16219°
Mean anomaly
264.2178°
Eccentric anomaly
264.18999°
Mean motion
3.87233 °/min
Orbital period
92.97 mins
BSTAR
0.00024115
Loading maneuver chart data...
Computing Atmospheric mass density...
Loading historical data...
Loading historical data...
Loading historical data...
Loading historical data...
Loading historical data...
Loading historical data...
Loading historical data...
Other satellites on launch #39 in the year 2023 (2023-03-22 UTC)

Documentation

Showing up to 5 results
|